QPF
0.00 0.00 0.00 0.00 0.00 0.00 0.00 0.00 0.00 0.00 0.00 0.00 0.00 0.00 0.00 0.00 0.00 0.00 0.00 0.00 0.00 0.00 0.00 0.00 0.00 0.00 0.01 0.02 0.04 0.05 0.06 0.06 0.05 0.06 0.06 0.05 0.05 0.04 0.04 0.03 0.03 0.03 0.04 0.09
0.00 0.00 0.00 0.00 0.00 0.00 0.00 0.00 0.00 0.00 0.00 0.00 0.00 0.00 0.00 0.00 0.00 0.00 0.00 0.00 0.00 0.00 0.00 0.00 0.00 0.00 0.00 0.00 0.00 0.01 0.01 0.01 0.01 0.01 0.01 0.01 0.01 0.01 0.01 0.00 0.01 0.01 0.02 0.06
0.00 0.00 0.00 0.00 0.00 0.00 0.00 0.00 0.00 0.00 0.00 0.00 0.00 0.00 0.00 0.00 0.00 0.00 0.01 0.01 0.01 0.00 0.00 0.00 0.00 0.00 0.00 0.00 0.00 0.00 0.00 0.01 0.00 0.00 0.00 0.00 0.00 0.00 0.00 0.00 0.00 0.01 0.02 0.04
0.00 0.00 0.00 0.00 0.00 0.00 0.00 0.00 0.00 0.00 0.00 0.00 0.00 0.00 0.00 0.00 0.01 0.02 0.03 0.03 0.02 0.01 0.00 0.00 0.00 0.00 0.00 0.00 0.00 0.00 0.00 0.00 0.00 0.00 0.00 0.00 0.00 0.00 0.00 0.00 0.00 0.00 0.01 0.02
0.00 0.00 0.00 0.00 0.00 0.00 0.00 0.00 0.00 0.00 0.00 0.00 0.00 0.00 0.00 0.01 0.03 0.05 0.06 0.04 0.02 0.01 0.00 0.00 0.00 0.00 0.00 0.00 0.00 0.00 0.00 0.00 0.00 0.00 0.00 0.00 0.00 0.00 0.00 0.00 0.01 0.01 0.01 0.02
0.00 0.00 0.00 0.00 0.00 0.00 0.00 0.00 0.00 0.00 0.00 0.00 0.01 0.01 0.02 0.03 0.04 0.05 0.04 0.03 0.01 0.00 0.00 0.00 0.00 0.00 0.00 0.00 0.00 0.00 0.00 0.00 0.00 0.00 0.00 0.01 0.01 0.01 0.01 0.01 0.01 0.01 0.01 0.02
0.01 0.01 0.01 0.00 0.00 0.00 0.00 0.00 0.00 0.00 0.00 0.00 0.01 0.01 0.01 0.02 0.02 0.03 0.02 0.01 0.00 0.00 0.00 0.00 0.00 0.00 0.00 0.00 0.00 0.00 0.00 0.00 0.00 0.00 0.00 0.00 0.00 0.00 0.00 0.00 0.01 0.01 0.02 0.03
0.00 0.00 0.01 0.00 0.00 0.00 0.00 0.00 0.00 0.00 0.00 0.00 0.00 0.01 0.02 0.02 0.02 0.02 0.01 0.00 0.00 0.00 0.00 0.00 0.00 0.00 0.00 0.00 0.00 0.00 0.00 0.00 0.00 0.00 0.00 0.00 0.00 0.00 0.00 0.00 0.01 0.02 0.03 0.04
0.00 0.00 0.00 0.00 0.00 0.00 0.00 0.00 0.00 0.00 0.00 0.00 0.00 0.00 0.01 0.01 0.01 0.00 0.00 0.00 0.00 0.00 0.00 0.00 0.00 0.00 0.00 0.00 0.00 0.00 0.00 0.00 0.00 0.00 0.00 0.00 0.00 0.00 0.00 0.00 0.01 0.02 0.03 0.03
0.00 0.00 0.00 0.00 0.00 0.00 0.00 0.00 0.00 0.00 0.00 0.00 0.00 0.00 0.00 0.00 0.00 0.00 0.00 0.00 0.00 0.00 0.00 0.00 0.00 0.00 0.00 0.00 0.00 0.00 0.00 0.00 0.00 0.00 0.00 0.00 0.00 0.00 0.00 0.00 0.01 0.02 0.03 0.04
0.00 0.00 0.00 0.00 0.00 0.00 0.00 0.00 0.00 0.00 0.00 0.00 0.00 0.00 0.00 0.00 0.00 0.00 0.00 0.00 0.00 0.00 0.00 0.00 0.00 0.00 0.00 0.00 0.00 0.00 0.00 0.00 0.00 0.00 0.00 0.00 0.00 0.00 0.00 0.00 0.01 0.02 0.03 0.04
0.00 0.00 0.00 0.00 0.00 0.00 0.00 0.00 0.00 0.00 0.00 0.00 0.00 0.00 0.00 0.00 0.00 0.00 0.00 0.00 0.00 0.00 0.00 0.00 0.00 0.00 0.00 0.00 0.00 0.00 0.00 0.00 0.00 0.00 0.00 0.00 0.00 0.00 0.00 0.01 0.02 0.02 0.02 0.03
0.00 0.00 0.00 0.00 0.00 0.00 0.00 0.00 0.00 0.00 0.00 0.00 0.00 0.00 0.00 0.00 0.00 0.00 0.00 0.00 0.00 0.00 0.00 0.00 0.00 0.00 0.00 0.00 0.00 0.00 0.00 0.00 0.00 0.00 0.00 0.00 0.00 0.00 0.00 0.01 0.02 0.02 0.03 0.05
0.00 0.00 0.00 0.00 0.00 0.00 0.00 0.00 0.00 0.00 0.00 0.00 0.00 0.00 0.00 0.00 0.00 0.00 0.00 0.00 0.00 0.00 0.00 0.00 0.00 0.00 0.00 0.00 0.00 0.00 0.00 0.00 0.00 0.00 0.00 0.00 0.00 0.00 0.00 0.00 0.01 0.02 0.04 0.06
0.00 0.00 0.00 0.00 0.00 0.00 0.00 0.00 0.00 0.00 0.00 0.00 0.00 0.00 0.00 0.00 0.00 0.00 0.00 0.00 0.00 0.00 0.00 0.00 0.00 0.00 0.00 0.00 0.00 0.00 0.00 0.00 0.00 0.00 0.00 0.01 0.00 0.00 0.00 0.00 0.00 0.01 0.02 0.03
0.00 0.00 0.00 0.00 0.00 0.00 0.00 0.00 0.00 0.00 0.00 0.00 0.00 0.00 0.00 0.00 0.00 0.00 0.00 0.00 0.00 0.00 0.00 0.00 0.00 0.00 0.00 0.00 0.00 0.00 0.00 0.00 0.00 0.00 0.01 0.01 0.01 0.00 0.00 0.00 0.00 0.00 0.00 0.01
0.00 0.00 0.00 0.00 0.00 0.00 0.00 0.00 0.00 0.00 0.00 0.00 0.00 0.01 0.01 0.01 0.01 0.01 0.00 0.00 0.00 0.00 0.00 0.00 0.00 0.00 0.00 0.00 0.00 0.00 0.00 0.00 0.00 0.00 0.01 0.01 0.01 0.00 0.00 0.00 0.00 0.00 0.00 0.00
0.00 0.00 0.00 0.00 0.00 0.00 0.00 0.00 0.00 0.00 0.01 0.01 0.01 0.02 0.02 0.02 0.02 0.01 0.00 0.00 0.00 0.00 0.00 0.00 0.00 0.00 0.00 0.00 0.00 0.00 0.00 0.01 0.01 0.01 0.01 0.02 0.01 0.00 0.00 0.00 0.00 0.00 0.00 0.00
0.00 0.00 0.00 0.00 0.00 0.00 0.00 0.00 0.01 0.01 0.01 0.01 0.02 0.02 0.02 0.02 0.01 0.01 0.00 0.00 0.00 0.00 0.00 0.00 0.00 0.00 0.00 0.00 0.01 0.01 0.02 0.02 0.03 0.03 0.02 0.02 0.01 0.00 0.00 0.00 0.00 0.00 0.00 0.00
0.00 0.00 0.00 0.00 0.00 0.01 0.01 0.01 0.03 0.03 0.04 0.03 0.03 0.02 0.02 0.01 0.01 0.01 0.00 0.00 0.00 0.00 0.00 0.00 0.00 0.00 0.01 0.01 0.02 0.03 0.04 0.05 0.06 0.06 0.05 0.04 0.02 0.01 0.00 0.00 0.00 0.00 0.00 0.00
0.00 0.01 0.01 0.01 0.03 0.03 0.02 0.02 0.03 0.06 0.07 0.03 0.02 0.02 0.02 0.02 0.02 0.01 0.00 0.01 0.01 0.00 0.00 0.01 0.01 0.01 0.01 0.03 0.04 0.06 0.07 0.08 0.09 0.10 0.10 0.09 0.05 0.02 0.01 0.00 0.00 0.00 0.00 0.01
0.00 0.01 0.01 0.02 0.04 0.06 0.02 0.02 0.02 0.02 0.01 0.01 0.01 0.01 0.01 0.01 0.01 0.01 0.00 0.00 0.00 0.00 0.00 0.01 0.02 0.03 0.04 0.06 0.09 0.12 0.12 0.13 0.15 0.15 0.14 0.13 0.10 0.06 0.02 0.01 0.00 0.00 0.00 0.00
0.00 0.01 0.02 0.03 0.04 0.01 0.00 0.00 0.01 0.00 0.00 0.01 0.01 0.01 0.01 0.01 0.01 0.00 0.00 0.00 0.00 0.00 0.00 0.00 0.01 0.02 0.04 0.07 0.14 0.20 0.23 0.24 0.23 0.19 0.17 0.16 0.13 0.09 0.05 0.03 0.01 0.01 0.01 0.00
0.00 0.00 0.01 0.02 0.01 0.00 0.00 0.00 0.00 0.00 0.00 0.00 0.00 0.00 0.00 0.00 0.00 0.00 0.00 0.00 0.00 0.01 0.00 0.00 0.00 0.01 0.01 0.04 0.13 0.26 0.32 0.31 0.27 0.21 0.17 0.17 0.15 0.11 0.08 0.05 0.03 0.02 0.01 0.00
0.00 0.00 0.00 0.01 0.00 0.00 0.00 0.00 0.00 0.00 0.00 0.00 0.00 0.00 0.00 0.00 0.00 0.00 0.00 0.00 0.00 0.00 0.00 0.00 0.00 0.00 0.00 0.01 0.06 0.21 0.33 0.34 0.30 0.23 0.17 0.15 0.15 0.12 0.08 0.06 0.05 0.04 0.02 0.01
0.00 0.00 0.00 0.00 0.00 0.00 0.00 0.00 0.00 0.00 0.00 0.00 0.00 0.00 0.00 0.00 0.00 0.00 0.00 0.00 0.00 0.00 0.00 0.00 0.00 0.00 0.00 0.01 0.02 0.09 0.25 0.40 0.40 0.32 0.25 0.19 0.14 0.13 0.10 0.07 0.05 0.04 0.03 0.01
MSLP
1012.58 1013.21 1013.64 1013.86 1013.92 1013.84 1013.69 1013.50 1013.30 1013.08 1012.84 1012.57 1012.25 1011.91 1011.56 1011.25 1011.00 1010.84 1010.78 1010.82 1010.93 1011.05 1011.15 1011.18 1011.14 1011.03 1010.87 1010.71 1010.60 1010.57 1010.65 1010.82 1011.06 1011.33 1011.56 1011.72 1011.76 1011.67 1011.46 1011.16 1010.82 1010.48 1010.17 1009.94
1012.91 1013.36 1013.62 1013.73 1013.73 1013.69 1013.65 1013.63 1013.64 1013.64 1013.59 1013.46 1013.21 1012.87 1012.45 1012.02 1011.62 1011.33 1011.16 1011.11 1011.16 1011.26 1011.35 1011.39 1011.33 1011.18 1010.97 1010.75 1010.56 1010.47 1010.50 1010.64 1010.89 1011.17 1011.43 1011.60 1011.65 1011.54 1011.29 1010.94 1010.52 1010.10 1009.74 1009.45
1012.98 1013.25 1013.36 1013.37 1013.37 1013.41 1013.53 1013.75 1014.02 1014.27 1014.44 1014.46 1014.30 1013.94 1013.44 1012.86 1012.30 1011.82 1011.49 1011.31 1011.28 1011.32 1011.39 1011.42 1011.36 1011.20 1010.96 1010.70 1010.47 1010.33 1010.33 1010.46 1010.70 1010.99 1011.26 1011.46 1011.51 1011.39 1011.12 1010.72 1010.25 1009.77 1009.34 1009.01
1012.86 1012.95 1012.93 1012.90 1012.93 1013.10 1013.44 1013.92 1014.48 1015.00 1015.40 1015.57 1015.47 1015.09 1014.48 1013.73 1012.97 1012.28 1011.75 1011.41 1011.25 1011.23 1011.26 1011.27 1011.21 1011.06 1010.84 1010.57 1010.33 1010.18 1010.16 1010.28 1010.51 1010.81 1011.09 1011.29 1011.35 1011.23 1010.94 1010.51 1010.01 1009.48 1009.00 1008.62
1012.66 1012.60 1012.49 1012.45 1012.56 1012.89 1013.45 1014.20 1015.04 1015.82 1016.41 1016.71 1016.65 1016.22 1015.49 1014.56 1013.57 1012.66 1011.92 1011.40 1011.10 1010.98 1010.97 1010.98 1010.94 1010.82 1010.63 1010.39 1010.17 1010.03 1010.01 1010.12 1010.35 1010.65 1010.94 1011.14 1011.21 1011.10 1010.80 1010.36 1009.83 1009.27 1008.74 1008.30
1012.52 1012.34 1012.19 1012.17 1012.38 1012.87 1013.64 1014.62 1015.68 1016.66 1017.40 1017.77 1017.71 1017.21 1016.35 1015.24 1014.04 1012.91 1011.96 1011.27 1010.84 1010.63 1010.58 1010.59 1010.58 1010.51 1010.37 1010.19 1010.01 1009.90 1009.89 1010.01 1010.24 1010.53 1010.82 1011.03 1011.11 1011.01 1010.72 1010.28 1009.73 1009.14 1008.57 1008.08
1012.54 1012.30 1012.13 1012.15 1012.46 1013.08 1014.00 1015.14 1016.34 1017.43 1018.23 1018.62 1018.52 1017.94 1016.95 1015.68 1014.30 1012.99 1011.88 1011.05 1010.51 1010.24 1010.16 1010.18 1010.22 1010.21 1010.13 1010.01 1009.89 1009.81 1009.82 1009.94 1010.17 1010.46 1010.74 1010.96 1011.05 1010.97 1010.70 1010.28 1009.73 1009.12 1008.52 1007.96
1012.80 1012.53 1012.38 1012.44 1012.81 1013.50 1014.50 1015.69 1016.92 1018.02 1018.80 1019.14 1018.98 1018.30 1017.21 1015.82 1014.34 1012.92 1011.70 1010.79 1010.19 1009.88 1009.79 1009.83 1009.91 1009.95 1009.94 1009.88 1009.80 1009.75 1009.78 1009.90 1010.12 1010.40 1010.69 1010.91 1011.03 1010.97 1010.74 1010.34 1009.81 1009.20 1008.56 1007.96
1013.26 1013.01 1012.89 1012.99 1013.37 1014.07 1015.04 1016.18 1017.33 1018.34 1019.02 1019.26 1019.01 1018.26 1017.10 1015.68 1014.16 1012.72 1011.49 1010.55 1009.95 1009.64 1009.56 1009.62 1009.72 1009.80 1009.83 1009.80 1009.74 1009.71 1009.73 1009.85 1010.05 1010.31 1010.59 1010.83 1010.97 1010.97 1010.78 1010.43 1009.94 1009.34 1008.70 1008.06
1013.83 1013.65 1013.56 1013.67 1014.03 1014.66 1015.52 1016.52 1017.51 1018.34 1018.87 1018.98 1018.64 1017.85 1016.70 1015.31 1013.86 1012.48 1011.32 1010.44 1009.87 1009.59 1009.52 1009.59 1009.70 1009.78 1009.81 1009.77 1009.70 1009.65 1009.64 1009.72 1009.89 1010.13 1010.41 1010.66 1010.84 1010.89 1010.78 1010.50 1010.07 1009.52 1008.89 1008.24
1014.39 1014.28 1014.25 1014.36 1014.66 1015.17 1015.86 1016.65 1017.42 1018.04 1018.39 1018.38 1017.98 1017.21 1016.13 1014.86 1013.55 1012.33 1011.30 1010.54 1010.04 1009.80 1009.75 1009.79 1009.86 1009.90 1009.88 1009.78 1009.66 1009.54 1009.47 1009.49 1009.61 1009.81 1010.08 1010.34 1010.57 1010.69 1010.66 1010.48 1010.14 1009.67 1009.10 1008.47
1014.81 1014.79 1014.80 1014.90 1015.14 1015.52 1016.02 1016.59 1017.12 1017.53 1017.72 1017.62 1017.21 1016.51 1015.57 1014.49 1013.39 1012.38 1011.53 1010.90 1010.50 1010.29 1010.22 1010.22 1010.21 1010.16 1010.03 1009.83 1009.60 1009.37 1009.21 1009.14 1009.18 1009.34 1009.58 1009.86 1010.12 1010.32 1010.40 1010.33 1010.12 1009.76 1009.29 1008.73
1015.01 1015.08 1015.14 1015.24 1015.42 1015.68 1016.01 1016.38 1016.72 1016.96 1017.04 1016.90 1016.53 1015.94 1015.19 1014.34 1013.49 1012.70 1012.05 1011.57 1011.24 1011.04 1010.93 1010.84 1010.71 1010.52 1010.24 1009.90 1009.53 1009.17 1008.89 1008.70 1008.66 1008.74 1008.94 1009.22 1009.52 1009.79 1009.98 1010.05 1009.98 1009.77 1009.43 1008.99
1015.00 1015.15 1015.26 1015.37 1015.51 1015.69 1015.91 1016.14 1016.35 1016.49 1016.50 1016.38 1016.09 1015.66 1015.11 1014.50 1013.89 1013.33 1012.85 1012.47 1012.19 1011.97 1011.78 1011.57 1011.30 1010.94 1010.51 1010.00 1009.48 1008.97 1008.55 1008.24 1008.09 1008.09 1008.23 1008.49 1008.82 1009.15 1009.44 1009.65 1009.74 1009.69 1009.51 1009.21
1014.86 1015.06 1015.22 1015.35 1015.49 1015.65 1015.81 1015.98 1016.13 1016.23 1016.26 1016.19 1016.01 1015.74 1015.39 1014.99 1014.58 1014.19 1013.83 1013.52 1013.24 1012.97 1012.67 1012.33 1011.90 1011.38 1010.78 1010.13 1009.45 1008.81 1008.25 1007.83 1007.56 1007.46 1007.54 1007.76 1008.08 1008.46 1008.84 1009.17 1009.41 1009.53 1009.52 1009.40
1014.69 1014.92 1015.13 1015.31 1015.48 1015.65 1015.83 1016.00 1016.16 1016.28 1016.36 1016.37 1016.31 1016.17 1015.98 1015.73 1015.45 1015.16 1014.86 1014.56 1014.24 1013.88 1013.47 1012.99 1012.42 1011.77 1011.04 1010.26 1009.47 1008.72 1008.05 1007.52 1007.15 1006.95 1006.95 1007.11 1007.40 1007.80 1008.23 1008.65 1009.02 1009.30 1009.46 1009.51
1014.63 1014.88 1015.12 1015.35 1015.58 1015.81 1016.03 1016.26 1016.46 1016.64 1016.78 1016.87 1016.90 1016.85 1016.75 1016.58 1016.36 1016.09 1015.78 1015.43 1015.03 1014.57 1014.05 1013.46 1012.78 1012.04 1011.23 1010.38 1009.53 1008.71 1007.98 1007.36 1006.90 1006.61 1006.51 1006.59 1006.84 1007.21 1007.66 1008.14 1008.61 1009.01 1009.32 1009.53
1014.81 1015.06 1015.32 1015.59 1015.88 1016.17 1016.46 1016.75 1017.02 1017.25 1017.44 1017.57 1017.64 1017.62 1017.53 1017.36 1017.11 1016.79 1016.41 1015.97 1015.47 1014.92 1014.31 1013.63 1012.91 1012.12 1011.30 1010.45 1009.60 1008.77 1008.01 1007.35 1006.82 1006.45 1006.25 1006.24 1006.40 1006.72 1007.15 1007.65 1008.17 1008.66 1009.09 1009.42
1015.26 1015.49 1015.76 1016.06 1016.39 1016.73 1017.08 1017.41 1017.71 1017.97 1018.17 1018.30 1018.34 1018.28 1018.13 1017.89 1017.55 1017.13 1016.64 1016.09 1015.50 1014.86 1014.18 1013.48 1012.75 1012.00 1011.22 1010.43 1009.63 1008.85 1008.10 1007.43 1006.86 1006.42 1006.13 1006.02 1006.08 1006.31 1006.69 1007.16 1007.70 1008.24 1008.74 1009.17
1015.96 1016.17 1016.43 1016.74 1017.08 1017.44 1017.79 1018.13 1018.42 1018.65 1018.81 1018.87 1018.83 1018.68 1018.42 1018.06 1017.59 1017.04 1016.43 1015.78 1015.09 1014.40 1013.70 1013.02 1012.33 1011.65 1010.97 1010.27 1009.57 1008.87 1008.18 1007.52 1006.93 1006.43 1006.06 1005.85 1005.81 1005.94 1006.23 1006.66 1007.17 1007.72 1008.27 1008.77
1016.82 1017.01 1017.25 1017.54 1017.85 1018.18 1018.49 1018.77 1019.00 1019.15 1019.21 1019.16 1019.00 1018.72 1018.32 1017.81 1017.21 1016.54 1015.82 1015.07 1014.33 1013.61 1012.93 1012.28 1011.68 1011.10 1010.53 1009.96 1009.38 1008.77 1008.15 1007.53 1006.93 1006.40 1005.96 1005.66 1005.51 1005.54 1005.74 1006.09 1006.56 1007.10 1007.67 1008.23
1017.73 1017.91 1018.12 1018.35 1018.60 1018.84 1019.06 1019.23 1019.34 1019.36 1019.28 1019.10 1018.79 1018.37 1017.83 1017.19 1016.47 1015.69 1014.89 1014.09 1013.32 1012.60 1011.95 1011.37 1010.85 1010.38 1009.93 1009.49 1009.02 1008.51 1007.96 1007.38 1006.80 1006.24 1005.75 1005.36 1005.13 1005.06 1005.17 1005.45 1005.87 1006.39 1006.97 1007.55
1018.57 1018.75 1018.91 1019.07 1019.22 1019.33 1019.41 1019.43 1019.38 1019.24 1019.01 1018.67 1018.22 1017.66 1017.00 1016.26 1015.46 1014.62 1013.77 1012.95 1012.18 1011.48 1010.88 1010.36 1009.92 1009.55 1009.20 1008.85 1008.48 1008.05 1007.57 1007.03 1006.46 1005.89 1005.36 1004.92 1004.62 1004.47 1004.51 1004.72 1005.09 1005.59 1006.18 1006.80
1019.28 1019.43 1019.54 1019.61 1019.63 1019.59 1019.50 1019.34 1019.11 1018.81 1018.41 1017.93 1017.36 1016.70 1015.96 1015.16 1014.31 1013.45 1012.60 1011.78 1011.03 1010.37 1009.80 1009.34 1008.96 1008.64 1008.36 1008.08 1007.77 1007.41 1006.97 1006.46 1005.91 1005.34 1004.80 1004.33 1003.97 1003.77 1003.76 1003.92 1004.26 1004.75 1005.34 1006.00
1019.78 1019.92 1019.96 1019.92 1019.79 1019.60 1019.33 1018.99 1018.58 1018.11 1017.58 1016.98 1016.31 1015.59 1014.81 1013.99 1013.14 1012.29 1011.45 1010.66 1009.94 1009.31 1008.77 1008.33 1007.98 1007.70 1007.45 1007.20 1006.92 1006.59 1006.19 1005.71 1005.18 1004.62 1004.08 1003.59 1003.22 1003.00 1002.95 1003.09 1003.41 1003.90 1004.51 1005.20
1020.10 1020.19 1020.16 1020.00 1019.73 1019.37 1018.93 1018.42 1017.86 1017.25 1016.60 1015.92 1015.20 1014.44 1013.66 1012.85 1012.02 1011.20 1010.39 1009.63 1008.94 1008.32 1007.79 1007.36 1007.01 1006.73 1006.48 1006.24 1005.97 1005.65 1005.26 1004.81 1004.30 1003.77 1003.24 1002.77 1002.40 1002.18 1002.13 1002.26 1002.58 1003.07 1003.71 1004.44
Thickness
5773 5756 5746 5756 5764 5766 5768 5765 5763 5776 5795 5790 5784 5787 5794 5802 5802 5795 5790 5786 5785 5785 5788 5790 5789 5786 5781 5775 5771 5767 5763 5759 5755 5751 5747 5744 5743 5744 5744 5745 5746 5746 5746 5746
5750 5747 5767 5778 5783 5778 5770 5760 5759 5770 5786 5783 5774 5775 5786 5791 5792 5790 5783 5778 5777 5776 5778 5780 5779 5777 5772 5767 5763 5759 5756 5752 5749 5745 5742 5739 5738 5737 5737 5738 5738 5738 5738 5739
5745 5763 5785 5782 5774 5767 5762 5756 5755 5757 5766 5770 5764 5751 5761 5774 5782 5783 5778 5773 5772 5771 5768 5769 5769 5768 5765 5761 5759 5756 5752 5749 5745 5742 5737 5733 5730 5728 5728 5729 5730 5732 5732 5732
5762 5777 5778 5771 5766 5764 5747 5764 5764 5760 5745 5734 5745 5716 5740 5756 5760 5763 5764 5763 5763 5765 5764 5763 5762 5761 5760 5759 5758 5753 5749 5745 5742 5738 5731 5725 5720 5717 5719 5721 5723 5725 5726 5726
5754 5767 5766 5760 5764 5766 5757 5767 5760 5753 5740 5728 5733 5717 5726 5745 5742 5747 5753 5756 5757 5760 5760 5759 5760 5759 5759 5757 5752 5747 5743 5738 5734 5730 5725 5719 5715 5713 5713 5714 5715 5717 5719 5720
5764 5776 5773 5768 5774 5772 5766 5755 5743 5731 5716 5702 5718 5712 5711 5726 5736 5740 5744 5749 5753 5756 5758 5758 5758 5756 5752 5749 5744 5739 5732 5727 5723 5719 5714 5709 5705 5703 5703 5703 5705 5708 5711 5713
5746 5760 5771 5775 5760 5760 5752 5717 5691 5690 5682 5690 5716 5708 5706 5733 5744 5744 5743 5746 5751 5753 5752 5750 5747 5744 5742 5739 5734 5729 5723 5717 5713 5708 5703 5698 5695 5692 5691 5691 5693 5696 5700 5703
5725 5725 5756 5766 5756 5745 5746 5720 5687 5677 5674 5685 5704 5700 5713 5739 5747 5749 5748 5746 5747 5745 5744 5742 5740 5737 5734 5731 5726 5721 5715 5709 5704 5699 5693 5689 5684 5681 5679 5680 5682 5685 5689 5693
5726 5727 5757 5767 5770 5759 5741 5726 5717 5691 5691 5685 5693 5709 5722 5735 5736 5739 5740 5740 5739 5739 5740 5739 5736 5733 5730 5726 5722 5716 5709 5703 5697 5692 5686 5680 5675 5671 5669 5669 5671 5674 5678 5683
5741 5726 5742 5756 5762 5760 5750 5735 5708 5694 5678 5669 5684 5695 5699 5719 5724 5731 5733 5734 5736 5737 5736 5735 5732 5730 5727 5724 5719 5713 5706 5699 5692 5686 5681 5674 5668 5663 5660 5659 5660 5663 5666 5669
5744 5720 5722 5732 5733 5731 5735 5731 5713 5692 5681 5668 5664 5682 5721 5723 5729 5731 5732 5731 5729 5728 5726 5725 5724 5724 5722 5719 5713 5707 5701 5695 5688 5682 5676 5669 5662 5657 5652 5650 5651 5652 5654 5656
5739 5714 5704 5716 5737 5747 5738 5728 5707 5687 5684 5679 5669 5685 5729 5728 5726 5724 5720 5720 5718 5717 5716 5715 5715 5714 5712 5710 5706 5701 5697 5691 5686 5679 5672 5665 5659 5653 5647 5644 5643 5643 5643 5644
5736 5709 5690 5695 5709 5726 5726 5728 5721 5702 5685 5676 5669 5682 5711 5713 5711 5710 5707 5706 5705 5705 5704 5703 5701 5700 5700 5701 5700 5696 5692 5688 5683 5676 5668 5661 5655 5650 5644 5640 5637 5636 5635 5635
5739 5710 5694 5687 5692 5705 5709 5718 5722 5706 5682 5679 5683 5685 5686 5692 5693 5694 5693 5692 5692 5691 5689 5688 5685 5684 5685 5687 5689 5689 5687 5684 5679 5672 5664 5658 5652 5647 5643 5638 5633 5630 5629 5627
5732 5710 5709 5706 5712 5715 5714 5716 5719 5711 5704 5691 5685 5675 5677 5680 5680 5678 5678 5679 5678 5676 5674 5671 5669 5668 5669 5670 5673 5677 5679 5678 5674 5668 5661 5655 5650 5645 5640 5635 5630 5626 5623 5622
5729 5715 5714 5707 5715 5715 5710 5713 5713 5702 5696 5688 5677 5666 5670 5671 5667 5662 5660 5660 5657 5655 5654 5654 5654 5653 5653 5653 5656 5662 5668 5670 5668 5663 5658 5653 5646 5641 5636 5632 5627 5622 5618 5616
5721 5710 5701 5690 5703 5702 5690 5697 5691 5677 5670 5669 5655 5648 5652 5651 5648 5641 5640 5639 5637 5637 5637 5636 5636 5636 5636 5638 5641 5646 5655 5661 5660 5657 5653 5648 5643 5637 5632 5628 5623 5618 5613 5610
5719 5704 5689 5684 5687 5676 5683 5695 5684 5661 5646 5645 5639 5632 5629 5627 5630 5627 5624 5619 5617 5616 5616 5616 5615 5617 5620 5622 5626 5632 5640 5647 5650 5650 5647 5643 5638 5633 5628 5623 5619 5614 5609 5605
5725 5702 5683 5670 5667 5673 5681 5677 5670 5656 5628 5624 5618 5614 5612 5613 5619 5620 5615 5607 5602 5600 5598 5597 5596 5597 5600 5603 5608 5614 5621 5629 5634 5638 5639 5638 5634 5628 5622 5618 5616 5611 5605 5601
5711 5699 5681 5668 5659 5650 5653 5659 5663 5652 5615 5607 5604 5601 5599 5598 5592 5597 5600 5593 5590 5587 5584 5582 5581 5581 5581 5583 5587 5592 5601 5608 5614 5621 5627 5630 5630 5625 5620 5616 5613 5608 5603 5598
5685 5679 5671 5660 5651 5646 5630 5639 5647 5624 5604 5595 5593 5589 5583 5575 5570 5574 5573 5570 5567 5565 5564 5562 5560 5558 5559 5560 5564 5568 5578 5586 5596 5605 5613 5619 5621 5621 5617 5613 5610 5606 5600 5594
5666 5658 5654 5648 5640 5627 5618 5615 5603 5591 5591 5586 5581 5575 5567 5562 5560 5557 5555 5552 5549 5546 5544 5540 5537 5536 5535 5534 5536 5542 5551 5564 5576 5587 5597 5606 5610 5612 5612 5608 5606 5603 5598 5591
5658 5650 5642 5628 5616 5606 5606 5598 5592 5586 5579 5574 5567 5561 5553 5548 5545 5542 5538 5535 5532 5529 5527 5524 5521 5520 5519 5516 5516 5520 5530 5542 5554 5566 5579 5589 5598 5602 5604 5603 5602 5599 5595 5590
5647 5644 5629 5613 5604 5600 5596 5590 5584 5576 5568 5562 5554 5547 5539 5532 5529 5525 5523 5521 5518 5517 5516 5515 5512 5510 5509 5506 5505 5507 5515 5523 5533 5545 5560 5573 5585 5592 5596 5598 5599 5598 5595 5590
5626 5623 5613 5598 5593 5589 5585 5578 5572 5566 5557 5549 5542 5533 5524 5517 5514 5512 5510 5510 5510 5512 5513 5511 5507 5506 5504 5501 5498 5499 5503 5510 5518 5530 5544 5558 5572 5584 5590 5593 5597 5599 5599 5596
5611 5602 5592 5582 5579 5571 5567 5565 5559 5548 5539 5530 5521 5515 5510 5502 5498 5499 5500 5501 5504 5506 5508 5505 5502 5500 5499 5496 5494 5494 5495 5501 5508 5519 5532 5547 5562 5576 5585 5589 5592 5594 5596 5594